Probability
9 9 9 9 7 5 3 2 2 1 0 0 0 0 0 0 0 0 0 0 0 0 0 0 0 0 0 0 0 0 0 0 0 0 0 0 0 0 0 0 0 0 0
7 8 9 9 7 6 3 1 1 0 0 0 0 0 0 0 0 0 0 0 0 0 0 0 0 0 0 0 0 0 0 0 0 0 0 0 0 0 0 0 0 0 0
5 7 7 6 6 5 3 1 0 0 0 0 0 0 0 0 0 0 0 0 0 0 0 0 0 0 0 0 0 0 0 0 0 0 0 0 0 0 0 0 0 0 0
5 5 5 4 4 4 2 1 0 0 0 0 0 0 0 0 0 0 0 0 0 0 0 0 0 0 0 0 0 0 0 0 0 0 0 0 0 0 0 0 0 0 0
4 4 3 3 3 3 1 0 0 0 0 0 0 0 0 0 0 0 0 0 0 0 0 0 0 0 0 0 0 0 0 0 0 0 0 0 0 0 0 0 0 0 0
3 3 3 4 4 3 1 0 0 0 0 0 0 0 0 0 0 0 0 0 0 0 0 0 0 0 0 0 0 0 0 0 0 0 0 0 0 0 0 0 0 0 0
3 3 3 4 4 3 1 0 0 0 0 1 1 0 0 0 0 0 0 0 0 0 0 0 0 0 0 0 0 0 0 0 0 0 0 0 0 0 0 0 0 0 0
2 2 1 2 3 3 1 1 0 0 2 3 2 1 1 0 0 0 0 0 0 0 0 0 0 0 0 0 0 0 0 0 0 0 0 0 0 0 0 0 0 0 0
1 1 0 1 2 3 2 2 1 2 4 5 4 3 1 0 0 0 0 0 0 0 0 0 0 0 0 0 0 0 0 0 0 0 0 0 0 0 0 0 0 0 0
0 0 0 0 1 2 2 2 2 4 6 7 6 4 1 0 0 0 0 0 0 0 0 0 0 0 0 0 0 0 0 0 0 0 0 0 0 0 0 0 0 0 0
1 0 0 0 0 1 2 2 4 6 8 8 6 4 2 0 0 0 0 0 0 0 0 0 0 0 0 0 0 0 0 0 0 0 0 0 0 0 0 0 0 0 0
2 1 0 1 1 1 3 4 5 7 8 7 6 4 2 1 0 0 0 0 0 0 0 0 0 0 0 0 0 0 0 0 0 0 0 0 0 0 0 0 0 0 0
2 1 0 1 2 2 4 5 6 7 7 7 6 4 2 1 0 0 0 0 0 0 0 0 0 0 0 0 0 0 0 0 0 0 0 0 0 0 0 0 0 0 0
1 0 0 1 1 2 4 5 6 6 6 6 5 4 2 1 0 0 0 0 0 0 0 0 0 0 0 0 0 0 0 0 0 0 0 0 0 0 0 0 0 0 0
0 0 0 1 1 2 3 3 4 4 5 6 4 2 1 0 0 0 0 0 0 0 0 0 0 0 0 0 0 0 0 0 0 0 0 0 0 0 0 0 0 0 0
0 0 0 1 2 2 1 1 3 3 4 4 3 1 0 0 0 0 0 0 0 0 0 0 0 0 0 0 0 0 0 0 0 0 0 0 0 0 0 0 0 0 0
0 0 0 1 1 1 0 1 2 2 3 2 1 0 0 0 0 0 0 0 0 0 0 0 0 0 0 0 0 0 0 0 0 0 0 0 0 0 0 0 0 0 0
0 0 0 0 0 0 0 0 1 1 1 1 0 0 0 0 0 0 0 0 0 0 0 0 0 0 0 0 0 0 0 0 0 0 0 0 0 0 0 0 0 0 0
0 0 0 0 0 0 0 0 0 0 0 0 0 0 0 0 0 0 0 0 0 0 0 0 0 0 0 0 0 0 0 0 0 0 0 0 0 0 0 0 0 0 0
0 0 0 0 0 0 0 0 0 0 0 0 0 0 0 0 0 0 0 0 0 0 0 0 0 0 0 0 0 0 0 0 0 0 0 0 0 0 0 0 0 0 0
0 0 0 0 0 0 0 0 0 0 0 0 0 0 0 0 0 0 0 0 0 0 0 0 0 0 0 0 0 0 0 0 0 0 0 0 0 0 0 0 0 0 0
0 0 0 0 0 0 0 0 0 0 0 0 0 0 0 0 0 0 0 0 0 0 0 0 0 0 0 0 0 0 0 0 0 0 0 0 0 0 0 0 0 0 0
0 0 0 0 0 0 0 0 0 0 0 0 0 0 0 0 0 0 0 0 0 0 0 0 0 0 0 0 0 0 0 0 0 0 0 0 0 0 0 0 0 0 0
0 0 0 0 0 0 0 0 0 0 0 0 0 0 0 0 0 0 0 0 0 0 0 0 0 0 0 0 0 0 0 0 0 0 0 0 0 0 0 0 0 0 0
0 0 0 0 0 0 0 0 0 0 0 0 0 0 0 0 0 0 0 0 0 0 0 0 0 0 0 0 0 0 0 0 0 0 0 0 0 0 0 0 0 0 0
0 0 0 0 0 0 0 0 0 0 0 0 0 0 0 0 0 0 0 0 0 0 0 0 0 0 0 0 0 0 0 0 0 0 0 0 0 0 0 0 0 0 0
Wind_Speed
5 6 8 8 8 7 8 7 6 5 5 3 3 3 2 2 2 2 4 4 4 4 4 3 3 3 3 2 2 2 3 3 2 3 4 4 3 3 2 2 2 3 4
5 6 7 7 7 8 8 7 7 6 5 4 3 3 3 2 2 2 2 3 4 4 4 4 3 2 2 3 3 3 2 2 3 2 2 4 6 4 4 3 2 2 2
10 9 9 8 9 9 9 8 7 6 6 5 3 3 3 3 2 2 1 2 3 4 4 4 3 2 2 1 1 2 2 1 2 2 2 1 2 4 4 4 4 4 2
11 10 10 10 10 10 8 8 7 6 6 5 5 5 3 2 2 2 2 1 2 2 3 4 4 3 2 1 1 2 2 2 1 2 1 2 3 1 4 4 4 5 4
12 12 12 12 11 10 9 8 8 7 6 6 6 6 4 3 2 2 1 1 1 1 2 3 3 3 2 1 1 1 1 1 1 0 1 1 1 1 1 4 5 5 4
12 12 11 10 9 9 9 9 8 7 6 6 6 6 6 5 3 2 1 0 1 1 1 3 3 3 2 2 2 1 1 1 1 1 1 1 0 1 0 2 3 4 4
12 12 11 11 10 11 11 10 10 8 7 7 6 7 7 6 5 3 2 2 1 0 1 2 3 2 2 3 2 2 2 2 2 2 2 2 3 3 2 2 3 3 4
13 13 14 13 13 13 12 11 10 8 8 8 7 6 7 4 4 4 4 3 3 2 2 2 3 3 3 3 2 2 2 2 3 3 3 2 3 3 3 3 2 3 3
14 14 14 13 12 13 12 12 11 9 9 8 7 6 6 6 5 4 3 3 3 3 3 3 3 3 3 3 3 2 3 3 3 4 4 3 3 3 3 3 3 3 3
14 14 13 13 12 12 11 10 11 10 9 9 7 6 6 6 6 4 4 4 4 3 3 3 3 3 3 3 3 3 4 4 4 4 4 4 3 4 3 3 3 4 4
15 14 12 11 11 10 10 10 10 9 8 8 7 7 6 6 6 5 5 4 4 4 4 4 4 4 4 4 3 4 4 5 5 5 5 6 5 4 4 3 3 3 3
14 12 11 10 10 11 11 11 10 10 9 8 7 7 7 6 6 5 5 5 5 5 5 5 4 5 5 5 5 5 5 5 6 6 5 6 5 5 4 4 4 4 4
10 9 10 11 12 12 11 11 11 10 9 8 8 7 7 6 6 6 5 5 5 5 5 4 5 5 5 5 6 6 6 6 6 6 6 6 5 6 5 5 5 5 5
11 11 11 11 11 11 11 11 10 9 9 8 8 8 8 8 7 7 6 6 6 5 6 5 6 6 6 6 6 6 6 6 6 6 6 6 6 7 6 6 6 5 5
11 12 12 11 10 10 9 10 9 9 9 9 8 9 8 7 7 6 6 6 6 6 6 5 6 5 5 6 6 6 6 6 6 5 6 6 8 10 8 6 6 5 5
12 12 11 11 11 11 11 9 9 9 9 9 9 8 7 7 7 7 6 6 6 5 5 6 6 6 6 8 9 7 5 5 6 6 6 6 8 10 11 12 11 9 7
10 12 12 13 12 12 11 11 10 8 9 9 8 8 8 8 8 7 6 6 6 5 6 6 6 7 8 11 11 11 6 6 6 6 6 6 7 8 6 8 10 10 12
10 11 11 10 9 9 9 9 8 8 9 9 8 8 8 8 7 6 7 7 5 5 6 6 7 7 8 11 12 12 8 7 7 7 7 7 8 8 7 7 7 7 8
8 10 11 10 9 9 9 8 8 7 8 8 8 8 8 8 7 7 8 6 5 6 6 5 7 7 9 11 12 11 5 6 8 8 7 7 8 11 11 7 7 8 7
3 5 6 6 7 8 8 9 8 7 8 9 8 7 7 8 8 8 8 6 6 7 6 7 7 8 8 11 13 11 5 6 7 6 7 10 10 10 9 6 6 7 8
1 3 4 6 7 6 8 8 7 8 9 6 6 6 6 7 7 6 6 6 6 6 6 7 7 7 9 11 13 12 6 7 7 6 6 6 10 11 10 8 6 10 8
4 3 3 2 2 5 7 7 8 7 5 5 5 5 5 5 5 5 5 5 5 6 7 6 7 7 7 9 11 13 13 11 7 7 6 7 10 11 10 8 9 13 9
4 3 3 3 2 3 5 6 5 3 3 3 4 4 4 4 4 4 5 5 5 5 6 6 7 7 6 7 12 13 13 14 9 7 10 10 11 10 8 11 14 10 6
6 5 5 4 2 1 2 2 1 3 3 3 3 3 3 4 4 4 4 5 5 6 6 6 7 7 6 6 6 6 6 8 8 7 7 9 10 9 10 9 8 6 6
5 5 5 3 2 2 1 1 1 2 2 1 2 2 3 4 4 5 5 7 7 8 9 8 8 7 8 10 12 8 6 6 5 3 2 3 3 4 5 5 6 6 6
6 6 6 5 4 3 3 2 1 2 2 1 2 2 3 3 4 5 7 10 12 14 16 16 13 10 13 13 12 14 13 10 7 5 3 5 5 6 7 6 6 6 6
Wind_Direction
188 164 156 150 138 133 134 137 141 145 133 121 118 117 126 133 133 157 153 144 136 124 114 105 85 73 64 39 24 24 15 356 358 14 341 326 324 330 318 307 281 248 230
168 166 156 151 148 148 148 152 154 152 146 144 147 148 142 141 145 145 148 156 151 146 137 132 122 99 74 43 35 47 38 353 19 49 21 349 341 339 353 0 9 335 293
176 179 171 166 163 166 168 167 167 158 154 147 120 92 73 61 61 82 136 188 172 162 153 153 144 129 111 82 48 75 86 18 348 48 96 62 316 313 325 349 6 356 348
182 180 173 171 176 179 174 167 167 161 157 146 135 135 136 141 166 170 189 222 202 187 178 165 156 150 136 122 115 115 115 105 5 350 49 165 194 262 318 324 343 350 353
183 181 179 179 182 179 173 168 165 165 161 151 146 136 135 151 157 140 143 231 280 250 188 167 157 155 154 160 147 122 119 138 163 250 328 353 18 109 155 309 327 335 330
185 185 183 180 181 178 173 169 167 170 165 158 153 149 151 154 145 136 137 296 322 334 136 148 153 162 168 184 203 205 205 205 210 212 201 187 234 280 226 271 302 309 306
184 185 185 184 184 182 178 174 171 173 172 164 161 160 160 159 161 170 168 165 162 189 183 153 163 174 193 204 207 216 235 234 234 237 230 215 213 209 200 219 271 290 297
188 190 191 188 185 184 181 177 177 174 172 168 168 165 161 155 159 164 166 173 184 196 191 173 181 198 211 218 209 214 232 228 238 251 243 237 241 219 205 205 224 298 306
190 193 193 190 186 183 183 181 176 173 175 174 170 171 169 164 171 176 172 176 187 188 178 182 196 217 226 230 221 228 243 243 243 247 248 241 247 238 226 209 191 200 271
191 194 192 190 188 184 180 174 172 175 176 174 176 176 176 175 176 174 183 191 200 196 193 209 219 230 237 235 225 235 243 244 250 243 247 249 246 248 243 233 220 197 207
192 193 191 187 180 173 170 170 170 169 173 175 174 168 177 180 177 182 194 196 201 202 208 218 223 229 237 238 232 240 246 244 254 257 248 251 248 246 248 243 238 229 206
191 187 181 173 170 170 170 172 173 175 179 175 172 176 180 179 181 193 202 199 204 211 214 217 221 230 235 233 231 242 246 239 245 251 250 256 256 248 245 240 241 239 226
184 175 170 170 173 174 173 175 178 180 177 171 172 177 182 184 193 202 205 204 206 215 220 218 224 232 236 236 235 233 238 236 237 240 241 249 251 254 250 244 243 242 245
173 170 173 175 175 175 175 176 182 180 174 172 176 184 192 194 200 203 204 208 211 216 222 224 227 231 234 237 238 234 234 237 241 240 239 242 240 244 248 249 244 241 244
169 173 176 176 175 175 177 179 182 180 173 172 182 194 197 196 198 201 208 213 216 221 221 225 232 235 235 235 232 230 231 233 243 248 246 245 248 248 246 245 238 235 236
177 178 175 174 178 180 181 181 183 180 171 176 189 192 190 193 199 205 210 214 220 225 221 226 232 239 241 239 231 222 226 229 235 247 253 258 262 264 263 263 256 236 228
177 178 181 182 183 183 180 184 184 175 173 182 188 188 190 197 205 207 207 214 219 219 224 233 234 241 249 251 247 239 224 228 235 240 249 262 263 263 260 266 270 264 251
180 185 187 188 188 183 181 179 171 171 178 186 193 194 193 202 207 205 211 217 215 217 226 233 236 241 251 252 250 247 233 232 238 238 239 245 258 262 254 256 262 259 258
187 190 191 186 182 182 179 165 169 173 181 194 200 200 197 202 204 210 218 218 215 224 227 233 236 241 254 254 253 245 226 235 245 245 244 241 249 259 259 253 256 264 268
176 187 180 166 174 185 167 163 174 178 196 203 204 202 198 202 208 215 218 217 216 226 231 239 238 238 247 253 253 242 216 234 247 252 250 247 249 257 259 239 238 253 262
118 147 150 166 186 174 158 169 177 198 208 200 197 200 203 207 212 216 220 221 226 235 239 246 248 243 245 255 254 241 212 224 238 245 248 246 250 254 254 238 226 241 250
35 81 127 158 157 152 159 173 198 210 194 184 194 206 211 215 216 218 230 230 228 239 247 252 261 258 252 248 249 241 225 219 223 237 241 244 250 251 252 250 244 250 256
36 58 100 96 81 128 154 182 216 186 166 180 205 216 218 222 219 216 229 237 233 237 250 249 256 261 255 249 243 240 234 227 223 236 240 245 253 258 257 253 253 254 244
36 44 64 70 52 78 163 196 183 152 158 192 221 226 225 239 242 237 232 235 239 243 247 248 252 255 255 248 240 235 235 233 232 241 251 257 260 257 254 258 258 242 230
41 51 59 59 34 36 30 20 80 133 158 209 236 247 246 248 257 257 248 245 242 238 239 245 242 243 253 248 229 214 216 213 215 208 238 249 255 257 257 255 252 244 236
41 43 41 39 32 36 23 360 9 114 136 244 266 260 260 265 266 273 282 265 258 260 250 247 246 244 243 251 238 225 224 215 186 173 225 242 244 247 252 255 258 249 241